Regional Weather Roundup
Issued by NWS

Home | Current Version | Previous Version | Text Only | Print | Product List | Glossary On
Versions: 1 2 3 4 5 6 7 8 9 10 11 12 13 14 15 16 17 18 19 20 21 22 23 24 25 26 27 28 29 30 31 32 33 34 35 36 37 38 39 40 41 42 43 44 45 46 47 48 49 50
000
ASUS43 KDTX 191410
RWRMI
MICHIGAN HOURLY REGIONAL WEATHER ROUNDUP
NATIONAL WEATHER SERVICE DETROIT/PONTIAC MI
900 AM EST FRI DEC 19 2014

NOTE: "FAIR" INDICATES FEW OR NO CLOUDS BELOW 12,000 FEET WITH NO
SIGNIFICANT WEATHER AND/OR OBSTRUCTION TO VISIBILITY.

MIZ047>049-052>055-059>063-066>070-074>076-081>083-191500-
SOUTHEAST LOWER MICHIGAN

CITY           SKY/WX    TMP DP  RH WIND       PRES   REMARKS
ADRIAN         CLOUDY    29  25  85 NE5       30.26R WCI  24
ALMA           CLOUDY    24  19  83 N5        30.29R WCI  18
ANN ARBOR      CLOUDY    27  23  85 N5        30.26R WCI  22
BAD AXE        PTCLDY    20  19  96 CALM      30.26S
CARO           CLEAR     24  19  83 NW5       30.27S WCI  18
DETROIT CITY   CLOUDY    29  19  66 CALM      30.28R
DETROIT        CLOUDY    27  20  75 N5        30.28R WCI  22
FLINT          CLOUDY    26  18  71 NW5       30.28R WCI  20
GROSSE ILE     CLOUDY    28  21  74 NW7       30.27R WCI  21
HILLSDALE      CLOUDY    28  27  96 CALM      30.23R FOG
HOWELL         CLOUDY    25  21  86 N6        30.26R WCI  18

CITY           SKY/WX    TMP DP  RH WIND       PRES   REMARKS
JACKSON        CLOUDY    27  25  92 N3        30.24S
LAMBERTVILLE   CLOUDY    32  27  80 NE7       30.27R WCI  26
LANSING        CLOUDY    25  20  81 N5        30.28R WCI  19
LAPEER         CLOUDY    25  19  79 CALM      30.27R
MASON          CLOUDY    26  23  90 N3        30.26R
MONROE         CLOUDY    28  25  86 CALM      30.25S
MT. CLEMENS    CLOUDY    27  22  80 NW7       30.25R WCI  19
PONTIAC        CLOUDY    24  19  81 N5        30.25R WCI  18
PORT HOPE        N/A     30  22  72 NW5       30.24R WCI  25
PORT HURON     CLOUDY    27  19  74 NW8       30.26R WCI  18
TRI CITIES     FAIR      22  17  81 NW7       30.29R WCI  13
TROY           CLOUDY    28  20  72 CALM      30.29R
SAGINAW HB     CLEAR     23  21  93 NW6       30.29R WCI  16
$$
MIZ043>046-050>051-056>058-064>065-071>073-077>080-191500-
SOUTHWEST LOWER MICHIGAN

CITY           SKY/WX    TMP DP  RH WIND       PRES   REMARKS
BATTLE CREEK   CLOUDY    29  25  85 N3        30.25S
BENTON HARBOR  CLOUDY    27  22  81 E5        30.27S WCI  22
BIG RAPIDS     CLOUDY    20  19  97 CALM      30.26S
COLDWATER      CLOUDY    28  26  94 CALM      30.24S FOG
FREMONT        FAIR      19  17  93 CALM      30.28R
HOLLAND        CLEAR     23  18  81 CALM      30.28S
GRAND RAPIDS   CLOUDY    26  19  74 N6        30.27S WCI  19
IONIA          CLOUDY    26  20  76 CALM      30.27R
KALAMAZOO      PTCLDY    25  21  85 CALM      30.26S
LUDINGTON      PTCLDY    13  10  87 CALM      30.30R
MARSHALL       CLOUDY    27  25  93 CALM      30.25R
MOUNT PLEASANT CLEAR     19  17  92 CALM      30.28R
MUSKEGON       PTCLDY    22  16  78 NE3       30.29R
SOUTH HAVEN    CLEAR     19  17  92 CALM      30.27S
$$
MIZ016>042-191500-
NORTHERN LOWER MICHIGAN

CITY           SKY/WX    TMP DP  RH WIND       PRES   REMARKS
ALPENA         CLOUDY    16  13  88 W7        30.28R WCI   6
BEAVER ISLAND  CLEAR     10   8  91 CALM      30.29R
BELLAIRE       PTCLDY     9   6  89 CALM      30.30S
CADILLAC       FAIR       8   5  88 CALM      30.24R
CHARLEVOIX     CLEAR     13  11  93 SE3       30.31R
FRANKFORT      CLOUDY    20  19  94 CALM      30.28S
GAYLORD        PTCLDY     1  -1  91 CALM      30.23S
GRAYLING       FOG        1  -2  86 CALM      30.26S VSB 1/2
HARBOR SPRINGS PTCLDY     7   3  86 NE3       30.28S
HOUGHTON LAKE  FOG       11   9  92 CALM      30.26R VSB 1/4
MANISTEE       CLOUDY    14  10  85 SE3       30.29S
OSCODA         CLEAR     14  12  92 CALM      30.27R
PELLSTON       PTCLDY     0  -3  87 CALM      30.29S
ROGERS CITY    CLOUDY    19  18  95 W3        30.29R
TRAVERSE CITY  PTCLDY    16  13  88 CALM      30.28S
$$
MIZ007>008-015-191500-
EASTERN UPPER MICHIGAN

CITY           SKY/WX    TMP DP  RH WIND       PRES   REMARKS
KINROSS        PTCLDY     7   5  92 CALM      30.29R
MACKINAC ISLAN PTCLDY    17  14  90 NE7       30.28R WCI   7
NEWBERRY       PTCLDY     5   3  94 CALM      30.28R
S. S. MARIE    PTCLDY    10   7  87 CALM      30.27F
MUNISING         N/A     26  20  77 S3        30.28R
$$
MIZ004>006-011>014-085-191500-
CENTRAL UPPER MICHIGAN

CITY           SKY/WX    TMP DP  RH WIND       PRES   REMARKS
MANISTIQUE     CLOUDY    14  13  95 CALM      30.29R
ESCANABA       CLOUDY    10   7  85 CALM      30.29R
MENOMINEE      PTCLDY    14  10  85 NW3       30.29S
SAWYER-GWINN   CLOUDY    21  18  86 CALM      30.25R
$$
MIZ001>003-009>011-084-191500-
WESTERN UPPER MICHIGAN

CITY           SKY/WX    TMP DP  RH WIND       PRES   REMARKS
IRON MOUNTAIN  PTCLDY     4   1  88 NW3       30.27R
HOUGHTON       CLOUDY    21  17  84 N3        30.26S
COPPER HARBOR    N/A     26  20  77 SW3       30.29R
IRONWOOD       CLOUDY    12  10  92 CALM      30.23R
$$

ABBREVIATIONS USED IN REMARKS
   TC - TEMPERATURE IN CELSIUS
  WCI - WIND CHILL INDEX
   HX - HEAT INDEX
  VSB - VISIBILITY



USA.gov is the U.S. government's official web portal to all federal, state and local government web resources and services.